When you browse on this site, cookies collect data to enhance your experience and personalize the content and advertising you see.
Visit our Privacy Policy to learn more. By continuing to use the site, you agree to this use of cookies and data.
  • In Hungary
  • List of Countries
  • For 7 days
  • Water Temperature
  • Satellite Maps
  • Weather Map
  • News
  • Weather Widgets
  • user-avatar
    Login

    Hourly Weather Addi-Ugri

    Today, 21 November, Wednesday

    Time Temperature Precipitation Wind Pressure Humidity
    00:00 +17°C° 0 mm 2 mps 602 mmHg 55%
    01:00 +16°C° 0 mm 2 mps 601 mmHg 58%
    02:00 +16°C° 0 mm 2 mps 601 mmHg 60%
    03:00 +15°C° 0 mm 2 mps 600 mmHg 67%
    04:00 +15°C° 0 mm 2 mps 600 mmHg 66%
    05:00 +15°C° 0 mm 2 mps 600 mmHg 66%
    06:00 +14°C° 0 mm 2 mps 600 mmHg 66%
    07:00 +16°C° 0 mm 2 mps 601 mmHg 55%
    08:00 +18°C° 0 mm 2 mps 602 mmHg 45%
    09:00 +20°C° 0 mm 2 mps 603 mmHg 31%
    10:00 +21°C° 0 mm 2 mps 603 mmHg 27%
    11:00 +24°C° 0 mm 3 mps 604 mmHg 24%
    12:00 +25°C° 0 mm 3 mps 604 mmHg 20%
    13:00 +25°C° 0 mm 3 mps 604 mmHg 20%
    14:00 +26°C° 0 mm 3 mps 603 mmHg 20%
    15:00 +26°C° 0 mm 4 mps 603 mmHg 19%
    16:00 +25°C° 0 mm 3 mps 603 mmHg 22%
    17:00 +24°C° 0 mm 3 mps 602 mmHg 26%
    18:00 +22°C° 0 mm 3 mps 602 mmHg 29%
    19:00 +21°C° 0 mm 3 mps 602 mmHg 33%
    20:00 +20°C° 0 mm 3 mps 602 mmHg 37%
    21:00 +19°C° 0 mm 2 mps 602 mmHg 41%
    22:00 +18°C° 0 mm 2 mps 601 mmHg 43%
    23:00 +18°C° 0 mm 2 mps 601 mmHg 45%

    Tomorrow, 22 November, Thursday

    Time Temperature Precipitation Wind Pressure Humidity
    00:00 +17°C° 0 mm 2 mps 601 mmHg 47%
    01:00 +17°C° 0 mm 2 mps 600 mmHg 48%
    02:00 +16°C° 0 mm 2 mps 600 mmHg 48%
    03:00 +16°C° 0 mm 1 mps 600 mmHg 49%
    04:00 +15°C° 0 mm 1 mps 600 mmHg 48%
    05:00 +15°C° 0 mm 1 mps 599 mmHg 47%
    06:00 +15°C° 0 mm 1 mps 599 mmHg 47%
    07:00 +16°C° 0 mm 2 mps 600 mmHg 40%
    08:00 +18°C° 0 mm 2 mps 601 mmHg 32%
    09:00 +20°C° 0 mm 2 mps 602 mmHg 25%
    10:00 +21°C° 0 mm 2 mps 603 mmHg 22%
    11:00 +24°C° 0 mm 2 mps 603 mmHg 19%
    12:00 +25°C° 0 mm 3 mps 603 mmHg 16%
    13:00 +26°C° 0 mm 3 mps 603 mmHg 16%
    14:00 +26°C° 0 mm 3 mps 602 mmHg 15%
    15:00 +27°C° 0 mm 3 mps 602 mmHg 15%
    16:00 +25°C° 0 mm 2 mps 602 mmHg 17%
    17:00 +24°C° 0 mm 2 mps 601 mmHg 19%
    18:00 +23°C° 0 mm 2 mps 601 mmHg 21%
    19:00 +21°C° 0 mm 2 mps 601 mmHg 23%
    20:00 +20°C° 0 mm 2 mps 601 mmHg 25%
    21:00 +21°C° 0 mm 1 mps 601 mmHg 27%
    22:00 +20°C° 0 mm 1 mps 601 mmHg 28%
    23:00 +19°C° 0 mm 1 mps 601 mmHg 29%

    Day after tomorrow, 23 November, Friday

    Time Temperature Precipitation Wind Pressure Humidity
    00:00 +19°C° 0 mm 1 mps 600 mmHg 29%
    01:00 +18°C° 0 mm 1 mps 600 mmHg 30%
    02:00 +18°C° 0 mm 1 mps 599 mmHg 30%
    03:00 +16°C° 0 mm 1 mps 599 mmHg 30%
    04:00 +16°C° 0 mm 1 mps 599 mmHg 29%
    05:00 +15°C° 0 mm 1 mps 599 mmHg 29%
    06:00 +15°C° 0 mm 1 mps 599 mmHg 28%
    07:00 +18°C° 0 mm 1 mps 600 mmHg 26%
    08:00 +20°C° 0 mm 1 mps 601 mmHg 24%
    09:00 +22°C° 0 mm 1 mps 603 mmHg 22%
    10:00 +23°C° 0 mm 2 mps 603 mmHg 22%
    11:00 +24°C° 0 mm 2 mps 603 mmHg 22%
    12:00 +25°C° 0 mm 2 mps 603 mmHg 22%
    13:00 +26°C° 0 mm 2 mps 603 mmHg 22%
    14:00 +26°C° 0 mm 3 mps 602 mmHg 21%
    15:00 +26°C° 0 mm 4 mps 602 mmHg 21%
    16:00 +25°C° 0 mm 3 mps 602 mmHg 23%
    17:00 +24°C° 0 mm 3 mps 602 mmHg 25%
    18:00 +23°C° 0 mm 2 mps 601 mmHg 27%
    19:00 +23°C° 0 mm 2 mps 601 mmHg 29%
    20:00 +21°C° 0 mm 2 mps 602 mmHg 32%
    21:00 +21°C° 0 mm 1 mps 602 mmHg 35%
    22:00 +20°C° 0 mm 1 mps 601 mmHg 36%
    23:00 +20°C° 0 mm 1 mps 601 mmHg 37%

    24 November, Saturday

    Time Temperature Precipitation Wind Pressure Humidity
    00:00 +19°C° 0 mm 1 mps 601 mmHg 38%
    01:00 +19°C° 0 mm 1 mps 600 mmHg 40%
    02:00 +16°C° 0 mm 0 mps 600 mmHg 41%
    03:00 +15°C° 0 mm 0 mps 599 mmHg 43%
    04:00 +15°C° 0 mm 0 mps 600 mmHg 43%
    05:00 +15°C° 0 mm 0 mps 600 mmHg 44%
    06:00 +14°C° 0 mm 0 mps 600 mmHg 44%
    07:00 +18°C° 0 mm 1 mps 601 mmHg 39%
    08:00 +20°C° 0 mm 1 mps 602 mmHg 35%
    09:00 +22°C° 0 mm 1 mps 603 mmHg 30%
    10:00 +23°C° 0 mm 1 mps 603 mmHg 29%
    11:00 +24°C° 0 mm 1 mps 603 mmHg 28%
    12:00 +25°C° 0 mm 1 mps 603 mmHg 26%
    13:00 +26°C° 0.1 mm 1 mps 603 mmHg 26%
    14:00 +26°C° 0.1 mm 2 mps 603 mmHg 25%
    15:00 +26°C° 0.1 mm 2 mps 602 mmHg 25%
    16:00 +25°C° 0.3 mm 2 mps 602 mmHg 27%
    17:00 +24°C° 0.3 mm 2 mps 602 mmHg 29%
    18:00 +24°C° 0.3 mm 2 mps 602 mmHg 32%
    19:00 +23°C° 0.1 mm 2 mps 602 mmHg 36%
    20:00 +21°C° 0.1 mm 2 mps 602 mmHg 40%
    21:00 +21°C° 0.1 mm 1 mps 602 mmHg 44%
    22:00 +20°C° 0.1 mm 1 mps 602 mmHg 48%
    23:00 +20°C° 0.1 mm 1 mps 602 mmHg 52%

    25 November, Sunday

    Time Temperature Precipitation Wind Pressure Humidity
    00:00 +19°C° 0.1 mm 1 mps 601 mmHg 55%
    01:00 +18°C° 0 mm 1 mps 601 mmHg 58%
    02:00 +18°C° 0 mm 1 mps 600 mmHg 60%
    03:00 +18°C° 0 mm 1 mps 600 mmHg 63%
    04:00 +16°C° 0 mm 1 mps 600 mmHg 65%
    05:00 +16°C° 0 mm 1 mps 600 mmHg 67%
    06:00 +16°C° 0 mm 1 mps 601 mmHg 69%
    07:00 +18°C° 0 mm 1 mps 601 mmHg 63%
    08:00 +19°C° 0 mm 1 mps 602 mmHg 58%
    09:00 +21°C° 0 mm 1 mps 603 mmHg 52%
    10:00 +22°C° 0 mm 1 mps 603 mmHg 47%
    11:00 +23°C° 0 mm 1 mps 604 mmHg 41%
    12:00 +25°C° 0 mm 1 mps 604 mmHg 36%
    13:00 +25°C° 0.1 mm 2 mps 603 mmHg 35%
    14:00 +25°C° 0.1 mm 2 mps 603 mmHg 34%
    15:00 +26°C° 0.1 mm 2 mps 603 mmHg 33%
    16:00 +25°C° 0 mm 3 mps 602 mmHg 38%
    17:00 +24°C° 0 mm 3 mps 602 mmHg 42%
    18:00 +22°C° 0 mm 4 mps 602 mmHg 46%
    19:00 +21°C° 0 mm 3 mps 602 mmHg 52%
    20:00 +20°C° 0 mm 3 mps 602 mmHg 57%
    21:00 +19°C° 0 mm 3 mps 602 mmHg 62%
    22:00 +19°C° 0 mm 3 mps 602 mmHg 65%
    23:00 +18°C° 0 mm 2 mps 601 mmHg 68%

    26 November, Monday

    Time Temperature Precipitation Wind Pressure Humidity
    00:00 +18°C° 0 mm 2 mps 601 mmHg 71%
    01:00 +17°C° 0 mm 2 mps 601 mmHg 73%
    02:00 +17°C° 0 mm 2 mps 600 mmHg 74%
    03:00 +17°C° 0 mm 2 mps 600 mmHg 75%
    04:00 +16°C° 0 mm 2 mps 600 mmHg 76%
    05:00 +16°C° 0 mm 2 mps 600 mmHg 77%
    06:00 +16°C° 0 mm 2 mps 600 mmHg 78%
    07:00 +17°C° 0 mm 2 mps 601 mmHg 73%
    08:00 +18°C° 0 mm 2 mps 602 mmHg 67%
    09:00 +19°C° 0 mm 3 mps 602 mmHg 61%
    10:00 +20°C° 0 mm 3 mps 602 mmHg 56%
    11:00 +22°C° 0 mm 3 mps 603 mmHg 51%
    12:00 +24°C° 0 mm 2 mps 603 mmHg 45%
    13:00 +24°C° 0 mm 2 mps 602 mmHg 43%
    14:00 +25°C° 0 mm 2 mps 602 mmHg 41%
    15:00 +25°C° 0 mm 2 mps 601 mmHg 39%
    16:00 +24°C° 0 mm 2 mps 601 mmHg 44%
    17:00 +24°C° 0 mm 3 mps 601 mmHg 48%
    18:00 +22°C° 0 mm 3 mps 601 mmHg 53%
    19:00 +21°C° 0.1 mm 3 mps 601 mmHg 57%
    20:00 +20°C° 0.1 mm 3 mps 601 mmHg 62%
    21:00 +19°C° 0.1 mm 2 mps 601 mmHg 66%
    22:00 +19°C° 0.2 mm 2 mps 601 mmHg 68%
    23:00 +18°C° 0.2 mm 2 mps 601 mmHg 70%
    Show more